STARLINK-3005, 48881

Orbit data source: Space-Track

STARLINK-3005, 48881 is a payload satellite owned by SpaceX/Seattle (US) in SSO that was launched on Wed, 30 Jun 2021 UTC via an FALCON 9 launch vehicle from the Air Force Eastern Test Range (AFETR). Payload-class satellites include a variety of spacecraft equipped with specific instruments for various scientific and technological missions. These include communications satellites like Starlink; space stations such as the ISS; scientific satellites like the Hubble; Earth observation satellites from companies like Planet Labs, Umbra, and HawkEye 360; GPS; miniature CubeSats for education and research; and military/defense satellites.

Loading next visibility...
Identifier
48881, 2021-059C
Orbit
SSO
Country
Flag of USUS
Related business
Manufacturer
SpaceX/Seattle
Mission
Operational Commercial Communications
Bus & Motor
STARLINK, Unknown motor
Mass
260 kg wet, ~248 kg dry
Launch date (UTC)
2021-06-30 (4 years ago)
Launch vehicle
FALCON 9
Launch site
Air Force Eastern Test Range (AFETR)
Object type
Payload
Rocket body
Debris
Shape & HBR
Box + 1 Pan, 10.1 m
Radar Cross Section
13.562 m², Large (>1 m²)

Expand to show TLE details & history
Last TLE update: 12 hours ago

TLE from 12 hours ago
0 STARLINK-3005
1 48881U 21059C   25308.77567809 -.00000152  00000-0 -72572-5 0  9991
2 48881  97.6635  72.0340 0002410 200.2258 159.8871 15.01263209240069
Epoch: 2025-11-04T18:36Z
TLE epoch observation values (Epoch: 2025-11-04T18:36:58.586Z)
Latitude
-0.00006°
Longitude
108.53204°
Altitude
567.629 km
Speed
7.576 km/s
True Right ascension
04h 48m 08s
True Declination
0° 00' 00"
Sunlit
Object was in full shadow at epoch
Visualization orbit readout
Latitude
Unknown
Longitude
Unknown
Altitude
Unknown
Speed
Unknown
Apparent Right ascension
Unknown
Apparent Declination
Unknown
Sunlit
N/A
Visualization observer readout
Local Sidereal Time
03:04:22
Azimuth
Unknown
Elevation
Unknown
Doppler factor
Unknown
Orbital elements
Apogee altitude
561.674 km
Perigee altitude
558.33 km
Semi-major axis
6,938.139 km
Eccentricity
0.00024
Inclination
97.6635°
RAAN
72.034°
Arg. of periapsis
200.2258°
True anomaly
159.89659°
Mean anomaly
159.8871°
Eccentric anomaly
159.89185°
Mean motion
3.75559 °/min
Orbital period
95.86 mins
BSTAR
-0.0000072572
Loading maneuver chart data...
Computing Atmospheric mass density...

Documentation

Showing up to 5 results
|